Location: Clinton NY
(43.0598°N, 75.3602°W)
Time: 17:24:56
(UTC-04:00)

Amateur Radio Satellites - All Passes

Search period start: 26 April 2017 16:54
Search period end: 27 April 2017 16:54
Location: Clinton NY, 43.0598°N, 75.3602°W

Satellite Date Start Highest point End Downlink Frequencies (MHz)
Time Altitude Azimuth
DOVE 4 26 Apr 16:59:02 17:03:08 23° 65° (ENE) 17:07:11 437.250
YUBILEINY 26 Apr 17:04:53 17:13:04 46° 272° (W) 17:21:16 435.215
MOZHAYETS 4 26 Apr 17:06:35 17:11:01 48° 288° (WNW) 17:15:27
BEESAT 26 Apr 17:11:38 17:15:30 25° 295° (WNW) 17:19:21 436.000
ITAMSAT 1 26 Apr 17:13:48 17:15:18 11° 272° (W) 17:16:48 435.822/435.867
KKS-1 26 Apr 17:20:27 17:24:40 42° 99° (E) 17:28:51 437.445
HO-68 26 Apr 17:27:39 17:30:38 13° 48° (NE) 17:33:37 435.675
XW-2D 26 Apr 17:31:33 17:34:27 22° 68° (ENE) 17:37:21 145.860 - 145.880
XW-2B 26 Apr 17:38:16 17:41:21 25° 69° (ENE) 17:44:27 145.730 - 145.750
KAITUO 1B 26 Apr 17:48:18 17:51:23 26° 69° (ENE) 17:54:29 145.475/437.950
LilacSat-2 26 Apr 17:48:37 17:52:03 34° 71° (ENE) 17:55:30 437.200
XW-2C 26 Apr 17:49:48 17:53:11 34° 71° (ENE) 17:56:37 145.795 - 145.815
STARS 26 Apr 17:52:48 17:56:56 40° 99° (E) 18:01:02 437.465
ITUPSAT 1 26 Apr 17:54:05 17:55:34 11° 302° (WNW) 17:57:03 437.325
CUBESAT XI-V 26 Apr 17:56:44 18:01:29 82° 283° (WNW) 18:06:11 437.345
AO-7 26 Apr 18:01:13 18:03:46 12° 274° (W) 18:06:21 .
XW-2F 26 Apr 18:15:06 18:18:47 68° 76° (ENE) 18:22:30 145.980 - 146.000
CUTE-I 26 Apr 18:15:30 18:20:48 69° 73° (ENE) 18:26:08 437.470
NUDT-PHONESAT 26 Apr 18:27:07 18:30:46 79° 75° (ENE) 18:34:27 437.300
CUTE 1.7 + AOD 2 26 Apr 18:29:17 18:31:41 15° 64° (ENE) 18:34:07 437.475
RS-15 26 Apr 18:30:39 18:41:18 38° 254° (WSW) 18:51:32 29.354- 29.394
DOVE 4 26 Apr 18:35:20 18:40:28 50° 261° (W) 18:45:34 437.250
XW-2A 26 Apr 18:40:54 18:42:58 16° 67° (ENE) 18:45:03 145.665 - 145.685
SEEDS 26 Apr 18:49:23 18:51:57 16° 64° (ENE) 18:54:32 437.485
KKS-1 26 Apr 18:57:42 19:00:55 20° 296° (WNW) 19:04:08 437.445
XW-2D 26 Apr 19:05:20 19:08:31 26° 264° (W) 19:11:43 145.860 - 145.880
HO-68 26 Apr 19:09:57 19:16:56 61° 68° (ENE) 19:23:59 435.675
O/OREOS (USA 219) 26 Apr 19:10:51 19:13:39 16° 51° (NE) 19:16:27 437.305
XW-2B 26 Apr 19:12:29 19:15:29 23° 265° (W) 19:18:31 145.730 - 145.750
UWE-3 26 Apr 19:20:29 19:22:58 15° 64° (ENE) 19:25:25 435.000/436.395/437.385
KAITUO 1B 26 Apr 19:22:31 19:25:22 21° 266° (W) 19:28:14 145.475/437.950
LilacSat-2 26 Apr 19:24:01 19:26:27 16° 268° (W) 19:28:53 437.200
XW-2C 26 Apr 19:25:04 19:27:30 16° 268° (W) 19:29:56 145.795 - 145.815
STARS 26 Apr 19:29:48 19:32:59 20° 296° (WNW) 19:36:11 437.465
CUBEBUG 2 26 Apr 19:31:51 19:35:43 32° 70° (ENE) 19:39:31 437.445
CUBESAT XI-V 26 Apr 19:37:29 19:38:02 10° 302° (WNW) 19:38:35 437.345
AAUSAT CUBESAT 2 26 Apr 19:56:03 19:59:54 39° 71° (ENE) 20:03:48 437.432
CUTE-I 26 Apr 19:58:09 20:01:20 16° 270° (W) 20:04:33 437.470
CUTE 1.7 + AOD 2 26 Apr 20:02:59 20:07:05 53° 260° (W) 20:11:15 437.475
STRAND 1 26 Apr 20:06:18 20:11:10 44° 99° (E) 20:16:02 437.568
NO-84 26 Apr 20:06:41 20:10:22 67° 138° (SE) 20:13:43 435.350 FM
XW-2A 26 Apr 20:12:31 20:15:30 29° 263° (W) 20:18:28 145.665 - 145.685
ZACube-1 26 Apr 20:14:39 20:18:23 32° 70° (ENE) 20:22:05 437.345
AO-85 26 Apr 20:20:45 20:23:09 15° 40° (NE) 20:25:36 145.980
AO-73 26 Apr 20:21:30 20:25:17 34° 70° (ENE) 20:29:02 145.935
SEEDS 26 Apr 20:23:12 20:27:14 48° 261° (W) 20:31:20 437.485
M-CUBED/EXP-1 PRIME 26 Apr 20:34:09 20:38:20 58° 106° (ESE) 20:42:09 437.505
Oscar 11 26 Apr 20:36:47 20:40:50 43° 72° (ENE) 20:44:56 .
DELFI C3 26 Apr 20:42:29 20:44:40 14° 64° (ENE) 20:46:52 145.870
O/OREOS (USA 219) 26 Apr 20:48:59 20:53:33 66° 250° (WSW) 20:58:03 437.305
UWE-3 26 Apr 20:54:53 20:59:02 51° 260° (W) 21:03:08 435.000/436.395/437.385
HO-68 26 Apr 20:59:15 21:05:05 27° 267° (W) 21:10:58 435.675
CUBEBUG 2 26 Apr 21:08:53 21:12:22 23° 265° (W) 21:15:47 437.445
OBJECT BX 26 Apr 21:22:46 21:25:52 27° 70° (ENE) 21:29:00 145.990 - 145.960
AAUSAT CUBESAT 2 26 Apr 21:32:40 21:35:31 18° 268° (W) 21:38:23 437.432
NO-84 26 Apr 21:45:26 21:48:08 21° 334° (NNW) 21:50:40 435.350 FM
STRAND 1 26 Apr 21:46:03 21:50:05 24° 296° (WNW) 21:54:07 437.568
PRISM 26 Apr 21:46:59 21:49:22 15° 92° (E) 21:51:44 437.425
ZACube-1 26 Apr 21:51:27 21:54:43 22° 266° (W) 21:57:58 437.345
AO-73 26 Apr 21:58:29 22:01:36 20° 266° (W) 22:04:42 145.935
TIGRISAT 26 Apr 21:59:12 22:00:54 12° 90° (E) 22:02:37 435.000
AO-85 26 Apr 21:59:59 22:03:56 68° 238° (WSW) 22:08:03 145.980
M-CUBED/EXP-1 PRIME 26 Apr 22:09:51 22:12:13 15° 304° (NW) 22:14:29 437.505
Oscar 11 26 Apr 22:14:19 22:17:11 17° 268° (W) 22:20:04 .
FO-29 26 Apr 22:15:06 22:18:33 17° 92° (E) 22:22:06 435.910
DELFI C3 26 Apr 22:15:10 22:19:02 49° 261° (W) 22:22:56 145.870
UNISAT 6 26 Apr 22:19:03 22:22:24 22° 94° (E) 22:25:47 437.425
LO-87 26 Apr 22:26:48 22:29:39 22° 69° (ENE) 22:32:30 145.935 - 145.965
BEESAT 2 26 Apr 22:30:27 22:33:41 22° 44° (NE) 22:36:52 435.950
BEESAT 3 26 Apr 22:31:09 22:35:05 48° 52° (NE) 22:38:57 437.485
OBJECT BX 26 Apr 22:56:53 22:59:34 19° 266° (W) 23:02:16 145.990 - 145.960
SPROUT 26 Apr 23:17:24 23:19:38 14° 62° (ENE) 23:21:52 437.525
PRISM 26 Apr 23:20:54 23:24:54 47° 288° (WNW) 23:28:52 437.425
TIGRISAT 26 Apr 23:33:45 23:37:59 61° 286° (WNW) 23:42:15 435.000
ESTCUBE 1 26 Apr 23:36:12 23:40:42 81° 73° (ENE) 23:45:14 437.505/2401.250
VELOX 1 26 Apr 23:49:30 23:53:29 33° 69° (ENE) 23:57:29 145.980
UNISAT 6 26 Apr 23:55:19 23:59:11 34° 290° (WNW) 00:03:05 437.425
FO-29 26 Apr 23:58:56 00:04:02 58° 288° (WNW) 00:09:25 435.910
LO-87 26 Apr 23:59:58 00:02:59 24° 265° (W) 00:06:00 145.935 - 145.965
POLYITAN 1 27 Apr 00:06:20 00:09:43 23° 95° (E) 00:13:05 437.675
BEESAT 2 27 Apr 00:07:45 00:11:37 43° 242° (WSW) 00:15:26 435.950
UKube-1 27 Apr 00:09:25 00:11:57 15° 62° (ENE) 00:14:30 .
BEESAT 3 27 Apr 00:09:44 00:12:17 16° 249° (WSW) 00:14:49 437.485
AIST 2D 27 Apr 00:10:44 00:14:11 50° 100° (E) 00:17:37 435.315
QB50P2 27 Apr 00:12:42 00:16:25 29° 96° (E) 00:20:06 145.880/145.840
BUGSAT 1 27 Apr 00:32:27 00:33:21 11° 90° (E) 00:34:15 437.445
50 SAT 27 Apr 00:32:39 00:36:03 50° 73° (ENE) 00:39:27 437.505
NANOSAT C BR1 27 Apr 00:34:18 00:38:17 42° 98° (E) 00:42:16 145.865
DX 1 27 Apr 00:40:42 00:44:51 44° 71° (ENE) 00:49:03 434.975-435.025
SPROUT 27 Apr 00:50:50 00:55:03 59° 260° (W) 00:59:17 437.525
EO-79 27 Apr 01:02:05 01:06:17 83° 284° (WNW) 01:10:29 145.935-145.965
NO-84 27 Apr 01:03:41 01:05:20 14° 18° (NNE) 01:06:57 435.350 FM
DUCHIFAT 1 27 Apr 01:03:54 01:08:06 84° 103° (ESE) 01:12:16 145.980
VELOX 1 27 Apr 01:26:18 01:29:57 25° 265° (W) 01:33:38 145.980
POLYITAN 1 27 Apr 01:41:49 01:45:30 31° 291° (WNW) 01:49:12 437.675
UKube-1 27 Apr 01:43:17 01:47:32 55° 259° (W) 01:51:49 .
AIST 2D 27 Apr 01:45:56 01:46:57 11° 296° (WNW) 01:47:59 435.315
ITUPSAT 1 27 Apr 01:45:59 01:48:38 15° 60° (ENE) 01:51:17 437.325
QB50P2 27 Apr 01:48:39 01:52:05 25° 293° (WNW) 01:55:30 145.880/145.840
BUGSAT 1 27 Apr 02:05:09 02:09:07 61° 286° (WNW) 02:13:04 437.445
NANOSAT C BR1 27 Apr 02:10:53 02:13:41 18° 296° (WNW) 02:16:30 145.865
Oscar 19 27 Apr 02:15:33 02:20:38 50° 100° (E) 02:25:39 437.125/150
DX 1 27 Apr 02:18:16 02:21:15 18° 267° (W) 02:24:14 434.975-435.025
Gurwin Techsat 1B 27 Apr 02:18:59 02:23:43 32° 96° (E) 02:28:26 435.225
MOZHAYETS 4 27 Apr 02:33:25 02:36:39 20° 64° (ENE) 02:39:56
NO-84 27 Apr 02:40:26 02:43:22 70° 39° (NE) 02:46:10 435.350 FM
BEESAT 27 Apr 02:40:33 02:45:06 49° 71° (ENE) 02:49:41 436.000
PCSat 27 Apr 02:46:34 02:51:58 76° 118° (ESE) 02:57:25 145.827
ITUPSAT 1 27 Apr 03:21:10 03:25:54 68° 258° (WSW) 03:30:39 437.325
CUBESAT XI-V 27 Apr 03:26:21 03:28:27 13° 60° (ENE) 03:30:35 437.345
ITAMSAT 1 27 Apr 03:42:15 03:46:43 29° 96° (E) 03:51:09 435.822/435.867
Oscar 19 27 Apr 03:55:36 03:59:35 23° 297° (WNW) 04:03:33 437.125/150
Gurwin Techsat 1B 27 Apr 03:58:53 04:03:39 34° 293° (WNW) 04:08:24 435.225
AO-7 27 Apr 04:01:49 04:09:33 41° 99° (E) 04:17:15 .
MOZHAYETS 4 27 Apr 04:09:08 04:13:29 45° 261° (W) 04:17:53
YUBILEINY 27 Apr 04:10:12 04:18:17 45° 88° (E) 04:26:23 435.215
KKS-1 27 Apr 04:19:04 04:23:19 44° 70° (ENE) 04:27:34 437.445
BEESAT 27 Apr 04:19:50 04:23:08 19° 268° (W) 04:26:27 436.000
PCSat 27 Apr 04:31:56 04:35:58 21° 318° (NW) 04:40:02 145.827
STARS 27 Apr 04:49:59 04:54:08 41° 70° (ENE) 04:58:16 437.465
CUBESAT XI-V 27 Apr 05:00:33 05:05:10 77° 257° (WSW) 05:09:53 437.345
ITAMSAT 1 27 Apr 05:21:30 05:26:13 37° 293° (WNW) 05:30:56 435.822/435.867
M-CUBED/EXP-1 PRIME 27 Apr 05:48:41 05:50:30 12° 54° (NE) 05:52:20 437.505
AO-7 27 Apr 05:54:32 06:02:23 49° 298° (WNW) 06:10:16 .
KKS-1 27 Apr 05:56:56 06:00:04 19° 267° (W) 06:03:12 437.445
YUBILEINY 27 Apr 06:07:03 06:15:07 41° 288° (WNW) 06:23:16 435.215
STARS 27 Apr 06:27:26 06:30:37 19° 267° (W) 06:33:49 437.465
CUTE-I 27 Apr 06:32:09 06:36:28 25° 94° (E) 06:40:46 437.470
DOVE 4 27 Apr 06:33:48 06:38:13 42° 98° (E) 06:42:21 437.250
SO-50 27 Apr 06:34:53 06:39:22 51° 119° (ESE) 06:43:49 436.795
XW-2D 27 Apr 06:36:26 06:39:43 27° 96° (E) 06:43:01 145.860 - 145.880
RS-15 27 Apr 06:41:48 06:52:26 39° 106° (ESE) 07:03:19 29.354- 29.394
XW-2B 27 Apr 06:43:16 06:46:42 31° 97° (E) 06:50:08 145.730 - 145.750
KAITUO 1B 27 Apr 06:51:50 06:55:15 32° 97° (E) 06:58:40 145.475/437.950
LilacSat-2 27 Apr 06:54:33 06:58:16 46° 99° (E) 07:01:59 437.200
XW-2C 27 Apr 06:55:02 06:58:42 44° 99° (E) 07:02:22 145.795 - 145.815
M-CUBED/EXP-1 PRIME 27 Apr 07:19:32 07:24:10 85° 69° (ENE) 07:28:53 437.505
XW-2F 27 Apr 07:20:07 07:23:56 89° 104° (ESE) 07:27:45 145.980 - 146.000
STRAND 1 27 Apr 07:22:56 07:28:00 71° 73° (ENE) 07:33:06 437.568
NUDT-PHONESAT 27 Apr 07:30:16 07:33:59 83° 285° (WNW) 07:37:44 437.300
Tancredo 1 27 Apr 07:31:02 07:32:36 13° 132° (SE) 07:34:09 437.200
XW-2A 27 Apr 07:34:08 07:35:57 14° 93° (E) 07:37:44 145.665 - 145.685
CUTE 1.7 + AOD 2 27 Apr 07:47:08 07:50:39 24° 94° (E) 07:54:08 437.475
AO-7 27 Apr 07:50:16 07:53:11 12° 320° (NW) 07:56:05 .
ISS 27 Apr 07:54:57 07:57:17 18° 134° (SE) 07:59:38 437.550
SEEDS 27 Apr 08:06:11 08:09:44 25° 95° (E) 08:13:16 437.485
XW-2D 27 Apr 08:10:48 08:13:47 22° 292° (WNW) 08:16:45 145.860 - 145.880
CUTE-I 27 Apr 08:11:39 08:16:41 44° 291° (WNW) 08:21:40 437.470
DOVE 4 27 Apr 08:12:12 08:15:34 20° 296° (WNW) 08:18:47 437.250
SO-50 27 Apr 08:16:22 08:20:05 24° 317° (NW) 08:23:47 436.795
XW-2B 27 Apr 08:17:56 08:20:42 19° 293° (WNW) 08:23:27 145.730 - 145.750
HO-68 27 Apr 08:23:57 08:31:03 59° 102° (ESE) 08:38:07 435.675
KAITUO 1B 27 Apr 08:26:22 08:29:03 19° 293° (WNW) 08:31:43 145.475/437.950
LilacSat-2 27 Apr 08:30:07 08:32:10 14° 295° (WNW) 08:34:13 437.200
XW-2C 27 Apr 08:30:27 08:32:32 14° 295° (WNW) 08:34:37 145.795 - 145.815
PRISM 27 Apr 08:37:44 08:39:45 13° 62° (ENE) 08:41:47 437.425
UWE-3 27 Apr 08:43:23 08:46:58 27° 96° (E) 08:50:36 435.000/436.395/437.385
RS-15 27 Apr 08:52:07 09:04:12 69° 309° (NW) 09:16:37 29.354- 29.394
CUBEBUG 2 27 Apr 08:57:18 09:01:26 64° 101° (E) 09:05:38 437.445
M-CUBED/EXP-1 PRIME 27 Apr 08:57:50 08:59:07 11° 267° (W) 09:00:25 437.505
TIGRISAT 27 Apr 08:59:04 09:01:08 13° 62° (ENE) 09:03:10 435.000
STRAND 1 27 Apr 09:04:59 09:07:41 14° 270° (W) 09:10:25 437.568
Tancredo 1 27 Apr 09:05:02 09:08:07 73° 328° (NNW) 09:11:13 437.200
XW-2A 27 Apr 09:05:46 09:08:48 32° 288° (WNW) 09:11:49 145.665 - 145.685
AAUSAT CUBESAT 2 27 Apr 09:12:04 09:16:15 65° 101° (ESE) 09:20:24 437.432
UNISAT 6 27 Apr 09:18:55 09:22:19 23° 67° (ENE) 09:25:41 437.425
CUTE 1.7 + AOD 2 27 Apr 09:22:41 09:26:29 31° 291° (WNW) 09:30:16 437.475
O/OREOS (USA 219) 27 Apr 09:25:37 09:27:36 13° 98° (E) 09:29:36 437.305
ISS 27 Apr 09:30:17 09:33:31 58° 331° (NNW) 09:36:45 437.550
ZACube-1 27 Apr 09:37:10 09:41:22 62° 101° (E) 09:45:37 437.345
SEEDS 27 Apr 09:41:42 09:45:23 29° 291° (WNW) 09:49:05 437.485
AO-73 27 Apr 09:43:42 09:47:54 66° 102° (ESE) 09:52:10 145.935
PCSat 27 Apr 09:51:27 09:54:36 15° 37° (NE) 09:57:45 145.827
DELFI C3 27 Apr 09:51:54 09:54:46 19° 93° (E) 09:57:36 145.870
Oscar 11 27 Apr 09:58:35 10:02:58 80° 104° (ESE) 10:07:19 .
PRISM 27 Apr 10:10:26 10:14:32 60° 259° (W) 10:18:41 437.425
FO-29 27 Apr 10:11:26 10:17:39 65° 72° (ENE) 10:23:11 435.910
HO-68 27 Apr 10:12:19 10:18:21 30° 301° (WNW) 10:24:24 435.675
UWE-3 27 Apr 10:19:51 10:23:22 26° 292° (WNW) 10:26:55 435.000/436.395/437.385
OBJECT BX 27 Apr 10:23:47 10:27:04 30° 97° (E) 10:30:20 145.990 - 145.960
TIGRISAT 27 Apr 10:32:58 10:37:19 64° 258° (WSW) 10:41:36 435.000
CUBEBUG 2 27 Apr 10:35:51 10:37:34 12° 298° (WNW) 10:39:16 437.445
Tancredo 1 27 Apr 10:42:00 10:44:25 20° 347° (NNW) 10:46:50 437.200
AIST 2D 27 Apr 10:46:30 10:49:10 21° 69° (ENE) 10:51:50 435.315
AAUSAT CUBESAT 2 27 Apr 10:49:24 10:51:10 12° 298° (WNW) 10:52:56 437.432
UNISAT 6 27 Apr 10:54:51 10:58:51 34° 262° (W) 11:02:49 437.425
POLYITAN 1 27 Apr 10:59:59 11:03:07 21° 66° (ENE) 11:06:16 437.675
O/OREOS (USA 219) 27 Apr 11:01:49 11:06:23 67° 295° (WNW) 11:11:00 437.305
QB50P2 27 Apr 11:06:13 11:09:42 26° 68° (ENE) 11:13:12 145.880/145.840
ISS 27 Apr 11:08:00 11:10:29 20° 350° (N) 11:13:00 437.550
RS-15 27 Apr 11:09:02 11:19:32 31° 339° (NNW) 11:30:05 29.354- 29.394
ZACube-1 27 Apr 11:15:10 11:17:10 13° 297° (WNW) 11:19:11 437.345
AO-73 27 Apr 11:21:51 11:23:37 12° 298° (WNW) 11:25:25 145.935
LO-87 27 Apr 11:25:48 11:28:40 22° 95° (E) 11:31:31 145.935 - 145.965
DELFI C3 27 Apr 11:25:59 11:29:39 34° 289° (WNW) 11:33:16 145.870
NANOSAT C BR1 27 Apr 11:27:04 11:30:54 35° 70° (ENE) 11:34:45 145.865
ESTCUBE 1 27 Apr 11:28:51 11:31:42 16° 91° (E) 11:34:30 437.505/2401.250
PCSat 27 Apr 11:33:32 11:38:59 73° 57° (ENE) 11:44:24 145.827
Oscar 11 27 Apr 11:37:12 11:38:26 11° 300° (WNW) 11:39:40 .
EO-79 27 Apr 11:54:52 11:59:05 80° 76° (ENE) 12:03:19 145.935-145.965
DUCHIFAT 1 27 Apr 11:56:07 12:00:16 68° 75° (ENE) 12:04:27 145.980
OBJECT BX 27 Apr 11:57:59 12:00:32 18° 293° (WNW) 12:03:05 145.990 - 145.960
Oscar 19 27 Apr 11:58:11 11:59:52 12° 56° (ENE) 12:01:33 437.125/150
FO-29 27 Apr 11:58:49 12:03:03 19° 267° (W) 12:07:01 435.910
AO-85 27 Apr 12:15:35 12:19:15 28° 115° (ESE) 12:22:46 145.980
Tancredo 1 27 Apr 12:18:55 12:21:08 18° 7° (N) 12:23:20 437.200
AIST 2D 27 Apr 12:19:28 12:22:16 23° 265° (W) 12:25:06 435.315
POLYITAN 1 27 Apr 12:34:47 12:38:41 36° 263° (W) 12:42:35 437.675
SPROUT 27 Apr 12:36:08 12:39:21 21° 94° (E) 12:42:34 437.525
QB50P2 27 Apr 12:41:44 12:45:24 28° 264° (W) 12:49:05 145.880/145.840
ISS 27 Apr 12:45:18 12:47:49 20° 11° (N) 12:50:19 437.550
BUGSAT 1 27 Apr 12:55:05 12:59:14 82° 256° (WSW) 13:03:22 437.445
LO-87 27 Apr 12:59:12 13:02:02 22° 291° (WNW) 13:04:51 145.935 - 145.965
NANOSAT C BR1 27 Apr 13:03:35 13:06:42 20° 266° (W) 13:09:50 145.865
ESTCUBE 1 27 Apr 13:04:22 13:08:48 52° 288° (WNW) 13:13:11 437.505/2401.250
VELOX 1 27 Apr 13:14:16 13:18:39 57° 101° (E) 13:22:58 145.980
AO-7 27 Apr 13:14:17 13:18:33 15° 44° (NE) 13:22:48 .
PCSat 27 Apr 13:18:27 13:21:44 16° 256° (WSW) 13:25:01 145.827
SO-50 27 Apr 13:26:34 13:28:14 12° 32° (NNE) 13:29:54 436.795
RS-15 27 Apr 13:27:06 13:37:19 28° 14° (NNE) 13:47:17 29.354- 29.394
50 SAT 27 Apr 13:27:56 13:31:19 45° 99° (E) 13:34:40 437.505
UKube-1 27 Apr 13:29:49 13:33:11 22° 94° (E) 13:36:31 .
Oscar 19 27 Apr 13:33:09 13:38:19 80° 74° (ENE) 13:43:32 437.125/150
DUCHIFAT 1 27 Apr 13:35:30 13:36:23 11° 271° (W) 13:37:16 145.980
Gurwin Techsat 1B 27 Apr 13:40:48 13:45:59 56° 71° (ENE) 13:51:11 435.225
Tancredo 1 27 Apr 13:54:35 13:57:36 44° 27° (NNE) 14:00:35 437.200
AO-85 27 Apr 13:55:49 13:59:34 31° 312° (NW) 14:03:11 145.980
BEESAT 3 27 Apr 13:58:38 14:02:30 62° 120° (ESE) 14:06:28 437.485
BEESAT 2 27 Apr 14:00:05 14:03:18 24° 113° (ESE) 14:06:32 435.950
DX 1 27 Apr 14:03:37 14:08:00 74° 103° (ESE) 14:12:20 434.975-435.025
SPROUT 27 Apr 14:11:29 14:15:21 35° 290° (WNW) 14:19:11 437.525
YUBILEINY 27 Apr 14:19:13 14:25:57 24° 63° (ENE) 14:32:40 435.215
ISS 27 Apr 14:21:34 14:24:48 59° 30° (NNE) 14:28:01 437.550
BEESAT 27 Apr 14:42:02 14:43:24 11° 89° (E) 14:44:46 436.000
VELOX 1 27 Apr 14:52:01 14:54:37 16° 298° (WNW) 14:57:13 145.980
ITAMSAT 1 27 Apr 15:00:55 15:05:53 49° 70° (ENE) 15:10:53 435.822/435.867
AO-7 27 Apr 15:01:34 15:09:39 60° 65° (ENE) 15:17:45 .
50 SAT 27 Apr 15:02:32 15:03:50 12° 296° (WNW) 15:05:08 437.505
SO-50 27 Apr 15:05:11 15:09:39 59° 53° (NE) 15:14:05 436.795
UKube-1 27 Apr 15:05:21 15:09:17 35° 291° (WNW) 15:13:11 .
Oscar 19 27 Apr 15:15:59 15:18:14 13° 271° (W) 15:20:30 437.125/150
ITUPSAT 1 27 Apr 15:20:57 15:25:03 28° 96° (E) 15:29:08 437.325
Gurwin Techsat 1B 27 Apr 15:22:31 15:26:16 19° 268° (W) 15:30:04 435.225
Tancredo 1 27 Apr 15:30:49 15:33:20 23° 224° (SW) 15:35:51 437.200
BEESAT 2 27 Apr 15:37:15 15:40:53 34° 311° (NW) 15:44:35 435.950
BEESAT 3 27 Apr 15:37:50 15:40:29 17° 319° (NW) 15:43:09 437.485
RS-15 27 Apr 15:41:10 15:53:18 58° 46° (NE) 16:04:52 29.354- 29.394
DX 1 27 Apr 15:41:51 15:43:34 12° 300° (WNW) 15:45:18 434.975-435.025
ISS 27 Apr 15:58:42 16:01:00 18° 226° (SW) 16:03:19 437.550
MOZHAYETS 4 27 Apr 16:02:53 16:07:12 38° 97° (E) 16:11:30
YUBILEINY 27 Apr 16:15:00 16:23:47 80° 265° (W) 16:32:34 435.215
BEESAT 27 Apr 16:16:57 16:21:45 80° 285° (WNW) 16:26:30 436.000
ITAMSAT 1 27 Apr 16:41:40 16:45:36 22° 267° (W) 16:49:32 435.822/435.867
SO-50 27 Apr 16:46:50 16:49:38 16° 250° (WSW) 16:52:26 436.795
